User: anonymous   Login
Location: Carrières
(48.9495°N, 2.0407°E)
Time: 20:32:13
(UTC+00:00)
Language:

Transit 2A - Orbit

View from above orbital plane
View from above orbital plane
View from above satellite
View from above satellite

Ground track
Ground track

The orbit data is extracted from the following two-line orbital elements,

1 00045U 60007A   24102.89991807  .00000324  00000-0  10692-3 0  9992
2 00045  66.6935 304.5614 0250431  18.6029 342.4023 14.34639177265769
Epoch (UTC): 11 April 2024 21:35:52
Eccentricity: 0.0250431
inclination: 66.6935°
perigee height: 597 km
apogee height: 955 km
right ascension of ascending node: 304.5614°
argument of perigee: 18.6029°
revolutions per day: 14.34639177
mean anomaly at epoch: 342.4023°
orbit number at epoch: 26576

The dashed part of the orbit path shows where the satellite is in the earth's shadow,  

DLR